Flag for Morocco Weather past 2 weeks in Rabat, Morocco

Now
63 °F

Scattered clouds.


Feels Like: 63 °F
Forecast: 51 / 66 °F
Wind: 5 mph from Northwest

Location: Rabat-Sale

Current Time: Mar 30, 2015 at 12:31:43 PM

Latest Report: Mar 30, 2015 at 12:00 PM


Visibility: 3 mi

Pressure: 30.39 "Hg

Humidity: 77%

Dew point: 55 °F

Location of RabatLocation

Historic Weather in Rabat — Graph

°F

Rabat temperature yesterday

Maximum temperature yesterday: 70 °F (at 4:00 PM)
Minimum temperature yesterday: 48 °F (at 12:30 AM)
Average temperature yesterday: 57 °F

Past Weeks' High & Low Weather Summary

 TemperatureHumidityPressure
High70 °F (Mar 29, 4:00 PM)100% (Mar 20, 3:00 AM)30.39 "Hg (Mar 20, 3:00 AM)
Low45 °F (Mar 17, 12:00 AM)49% (Mar 17, 12:30 PM)29.68 "Hg (Mar 20, 2:30 AM)
Average56 °F80%29.98 "Hg
* Reported Mar 15 10:00 AM — Mar 30 11:30 AM, Rabat, Weather by CustomWeather, © 2015

Note: Actual official high and low records may vary slightly from our data, if they occured in-between our weather recording intervals... More about our weather records

Advertising

Rabat weather history for previous 24 hours

 ConditionsComfort  
Time TempWeatherWind HumidityBarometerVisibility
11:30 AM
Mon, Mar 30
59 °FScattered clouds.2 mph94%30.36 "Hg3 mi
11:00 AM57 °FPartly sunny.1 mph94%30.39 "Hg3 mi
10:30 AM55 °FFog.3 mph94%30.39 "Hg1 mi
10:00 AM57 °FFog.3 mph94%30.39 "Hg1 mi
9:30 AM57 °FFog.5 mph94%30.36 "Hg0 mi
9:00 AM57 °FFog.3 mph94%30.36 "Hg0 mi
8:30 AM55 °FFog.2 mph100%30.36 "Hg0 mi
8:00 AM55 °FFog.2 mph94%30.36 "Hg0 mi
7:30 AM55 °FFog.1 mph94%30.33 "Hg0 mi
7:00 AM55 °FFog.2 mph94%30.33 "Hg0 mi
6:30 AM54 °FFog.No wind100%30.33 "Hg0 mi
6:00 AM54 °FFog.3 mph94%30.33 "Hg0 mi
5:30 AM54 °FFog.2 mph94%30.33 "Hg0 mi
5:00 AM52 °FFog.1 mph94%30.33 "Hg1 mi
4:30 AM50 °FFog.No wind94%30.33 "Hg1 mi
4:00 AM50 °FFog.1 mph94%30.33 "Hg1 mi
3:30 AM48 °FFog.2 mph94%30.33 "Hg1 mi
3:00 AM48 °FFog.No wind100%30.33 "Hg1 mi
2:30 AM52 °FFog.2 mph94%30.36 "Hg1 mi
2:00 AM52 °FFog.2 mph94%30.36 "Hg1 mi
1:30 AM52 °FFog.3 mph100%30.36 "Hg1 mi
1:00 AM52 °FFog.2 mph94%30.36 "Hg1 mi
12:30 AM52 °FFog.2 mph94%30.36 "Hg1 mi
12:00 AM54 °FFog.No wind94%30.36 "Hg1 mi
11:30 PM
Sun, Mar 29
54 °FFog.No wind94%30.36 "Hg1 mi
11:00 PM55 °FFog.No wind94%30.36 "Hg1 mi
10:30 PM57 °FFog.No wind94%30.36 "Hg1 mi
10:00 PM59 °FFog.1 mph94%30.36 "Hg1 mi
9:30 PM59 °FFog.2 mph94%30.36 "Hg1 mi
9:00 PM59 °FFog.2 mph94%30.36 "Hg1 mi
8:30 PM61 °FFog.3 mph88%30.33 "Hg1 mi
8:00 PM61 °FFog.3 mph88%30.30 "Hg1 mi
7:30 PM61 °FPassing clouds.6 mph88%30.30 "Hg4 mi
7:00 PM64 °FPassing clouds.5 mph73%30.30 "Hg4 mi
6:30 PM66 °FScattered clouds.5 mph73%30.27 "Hg4 mi
6:00 PM66 °FScattered clouds.6 mph73%30.30 "Hg4 mi
5:30 PM66 °FScattered clouds.5 mph73%30.30 "Hg3 mi
5:00 PM66 °FScattered clouds.5 mph73%30.30 "Hg3 mi
4:30 PM68 °FScattered clouds.6 mph69%30.30 "Hg3 mi
4:00 PM70 °FScattered clouds.3 mph64%30.30 "Hg3 mi
3:30 PM68 °FScattered clouds.3 mph69%30.30 "Hg3 mi
3:00 PM64 °FScattered clouds.6 mph83%30.30 "Hg3 mi
2:30 PM64 °FScattered clouds.6 mph78%30.30 "Hg3 mi
2:00 PM64 °FScattered clouds.5 mph78%30.33 "Hg3 mi
1:30 PM61 °FPartly sunny.6 mph88%30.33 "Hg1 mi
1:03 PM61 °FPartly sunny.10 mph88%30.36 "Hg2 mi
12:00 PM63 °FScattered clouds.7 mph83%30.33 "Hg3 mi
Weather by CustomWeather, © 2015

See weather overviewHow to use our weather pages